Latest Coastal Weather Observations for Northern Endeavour (near 10.5S 126E)

IDD60701

Issued at 11:41 pm CST Friday 20 October 2017 (issued every 10 minutes, with the page automatically refreshed every 10 minutes)

About coastal observations | Map of coastal stations | Coastal observations for NT | Marine services | Other Formats
Station Details ID: 200212 Name: NORTHERN ENDEAVOUR Lat: -10.61 Lon: 125.98 Height: 16.0 m
Data from the previous 72 hours. | See also: Recent months for locations in Northern Territory
Date/Time
CST
Temp
°C
Wind Pressure Rain since
9am
mm
Weather Cloud Vis
km
Sea
Height
m
Swell
Dir  Spd
kts
Gust
kts
hPa Trend Height
m
Period
s
Dir
20/11:30pm 28.9 NNE 4 3 1012.2 - - - Partly cloudy 10 - - - -
20/11:20pm 28.9 NNE 5 5 1012.2 - - - Partly cloudy 10 - - - -
20/11:10pm 29.0 NNE 4 5 1012.3 - - - Partly cloudy 10 - - - -
20/11:00pm 29.0 N 5 5 1012.3 - - - Partly cloudy 10 - - - -
20/10:50pm 29.0 N 5 5 1012.3 - - - Partly cloudy 10 - - - -
20/10:40pm 29.0 - 6 7 1012.3 - - - Partly cloudy 10 - - - -
20/10:30pm 29.0 N 5 7 1012.1 - - - Partly cloudy 10 - - - -
20/10:20pm 29.1 NNE 7 6 1011.9 - - - Partly cloudy 10 - - - -
20/10:10pm 29.2 NNE 7 9 1011.9 - - - Partly cloudy 10 - - - -
20/10:00pm 29.1 NE 8 12 1011.8 - - - Partly cloudy 10 - - - -
20/09:50pm 29.1 NNE 8 9 1011.7 - - - Partly cloudy 10 - - - -
20/09:40pm 29.1 NNE 8 11 1011.6 - - - Partly cloudy 10 - - - -
20/09:30pm 29.2 N 9 9 1011.6 - - - Partly cloudy 10 - - - -
20/09:20pm 29.1 N 9 12 1011.5 - - - Partly cloudy 10 - - - -
20/09:10pm 29.1 N 8 9 1011.4 - - - Partly cloudy 10 - - - -
20/09:00pm 29.2 N 9 8 1011.3 - - - Partly cloudy 10 - - - -
20/08:50pm 29.1 NNE 9 10 1011.2 - - - Partly cloudy 10 - - - -
20/08:40pm 29.2 NNE 9 10 1011.0 - - - Partly cloudy 10 - - - -
20/08:30pm 29.3 NNE 8 11 1011.0 - - - - 10 - - - -
20/08:20pm 29.3 N 7 7 1010.8 - - - - 10 - - - -
20/08:10pm 29.3 NNE 7 9 1010.8 - - - - 10 - - - -
20/08:00pm 29.3 NNE 6 7 1010.7 - - - - 10 - - - -
20/07:50pm 29.3 NNE 7 8 1010.5 - - - - 10 - - - -
20/07:40pm 29.4 NNE 7 9 1010.4 - - - - 10 - - - -
20/07:30pm 29.5 NNE 6 8 1010.2 - - - - 10 - - - -
20/07:20pm 29.6 NNE 6 9 1010.0 - - - - 10 - - - -
20/07:10pm 29.7 NNE 5 7 1009.8 - - - - 10 - - - -
20/07:00pm 29.7 NNE 5 6 1009.7 - - - - 10 - - - -
20/06:50pm 29.9 NE 7 8 1009.5 - - - - 10 - - - -
20/06:40pm 30.0 NNE 7 9 1009.5 - - - - 10 - - - -
20/06:30pm 30.2 NE 7 10 1009.2 - - - - 10 - - - -
20/06:20pm 30.1 NE 7 8 1009.1 - - - - 10 - - - -
20/06:10pm 30.4 NNE 8 9 1009.0 - - - - 10 - - - -
20/06:00pm 30.5 NNE 9 11 1009.0 - - - - 10 - - - -
20/05:50pm 30.5 NNE 9 13 1009.2 - - - - 10 - - - -
20/05:40pm 30.6 NNE 9 10 1009.1 - - - - 10 - - - -
20/05:30pm 30.8 NNE 10 11 1009.1 - - - - 10 - - - -
20/05:20pm 31.2 NNE 10 12 1009.4 - - - - 10 - - - -
20/05:10pm 31.6 N 10 10 1009.4 - - - Partly cloudy 10 - - - -
20/05:00pm 31.4 N 10 11 1009.5 - - - Partly cloudy 10 - - - -
20/04:50pm 31.3 N 10 12 1009.6 - - - Partly cloudy 10 - - - -
20/04:40pm 31.8 N 11 12 1009.7 - - - Partly cloudy 10 - - - -
20/04:30pm 31.7 NNE 11 13 1009.8 - - - Partly cloudy 10 - - - -
20/04:20pm 31.2 NNE 11 11 1009.7 - - - Partly cloudy 10 - - - -
20/04:10pm 31.4 NNE 9 11 1009.8 - - - Partly cloudy 10 - - - -
20/04:00pm 31.8 NNE 10 12 1009.9 - - - Partly cloudy 10 - - - -
20/03:50pm 32.5 NNE 9 12 1010.1 - - - Partly cloudy 10 - - - -
20/03:40pm 32.5 NE 9 11 1010.1 - - - Partly cloudy 10 - - - -
20/03:30pm 32.4 NE 9 12 1010.2 - - - - 10 - - - -
20/03:20pm 32.6 NE 7 10 1010.2 - - - Partly cloudy 10 - - - -
20/03:10pm 33.1 NE 9 11 1010.2 - - - Partly cloudy 10 - - - -
20/03:00pm 32.6 ENE 8 9 1010.3 - - - Partly cloudy 10 - - - -
20/02:50pm 31.1 NE 7 9 1010.3 - - - Partly cloudy 10 - - - -
20/02:40pm 30.6 ENE 7 10 1010.4 - - - Partly cloudy 10 - - - -
20/02:30pm 30.2 NE 6 7 1010.5 - - - Partly cloudy 10 - - - -
20/02:20pm 30.0 NE 7 8 1010.6 - - - Partly cloudy 10 - - - -
20/02:10pm 30.1 NE 6 7 1010.7 - - - Partly cloudy 10 - - - -
20/02:00pm 30.4 NE 5 8 1010.7 - - - Partly cloudy 10 - - - -
20/01:50pm 30.5 NE 5 5 1010.9 - - - Partly cloudy 10 - - - -
20/01:40pm 30.4 ENE 5 6 1011.0 - - - Partly cloudy 10 - - - -
20/01:30pm 31.6 E 6 5 1011.0 - - - Partly cloudy 10 - - - -
20/01:20pm 32.8 E 7 8 1011.0 - - - Partly cloudy 10 - - - -
20/01:10pm 32.0 E 6 10 1010.9 - - - Partly cloudy 10 - - - -
20/01:00pm 32.4 E 5 10 1011.2 - - - - 10 - - - -
20/12:50pm 32.8 E 5 8 1011.5 - - - - 10 - - - -
20/12:40pm 32.4 ESE 6 6 1011.7 - - - Partly cloudy 10 - - - -
20/12:30pm 31.9 E 5 10 1011.7 - - - Partly cloudy 10 - - - -
20/12:20pm 31.4 E 4 7 1012.0 - - - Partly cloudy 10 - - - -
20/12:10pm 30.8 E 4 7 1012.3 - - - Partly cloudy 10 - - - -
20/12:00pm 31.0 E 4 4 1012.4 - - - Partly cloudy 10 - - - -
20/11:50am 31.9 E 5 6 1012.4 - - - Partly cloudy 10 - - - -
20/11:40am 32.8 E 4 4 1012.4 - - - Partly cloudy 10 - - - -
20/11:30am 32.5 ESE 7 8 1012.3 - - - Partly cloudy 10 - - - -
20/11:20am 32.0 ESE 9 9 1012.2 - - - Partly cloudy 10 - - - -
20/11:10am 32.4 ESE 9 9 1012.1 - - - Partly cloudy 10 - - - -
20/11:00am 32.1 ESE 9 9 1012.0 - - - Partly cloudy 10 - - - -
20/10:50am 32.4 E 9 11 1012.0 - - - Partly cloudy 10 - - - -
20/10:40am 31.8 E 9 11 1012.1 - - - - 10 - - - -
20/10:30am 31.5 ESE 8 9 1012.2 - - - - 10 - - - -
20/10:20am 31.6 E 8 8 1012.3 - - - - 10 - - - -
20/10:10am 31.2 E 8 8 1012.3 - - - - 10 - - - -
20/10:00am 30.4 E 9 9 1012.3 - - - - 10 - - - -
20/09:50am 29.0 E 9 10 1012.2 - - - Partly cloudy 10 - - - -
20/09:40am 29.4 ESE 6 9 1012.3 - - - Partly cloudy 10 - - - -
20/09:30am 29.1 E 5 8 1012.2 - - - Partly cloudy 10 - - - -
20/09:20am 28.9 ESE 5 5 1012.3 - - - Partly cloudy 10 - - - -
20/09:10am 28.9 ESE 4 5 1012.3 - - - Partly cloudy 10 - - - -
20/09:00am 28.7 SE 5 5 1012.1 - - - Partly cloudy 10 - - - -
20/08:50am 28.6 E 5 5 1012.1 - - - Partly cloudy 10 - - - -
20/08:40am 28.8 E 4 4 1012.1 - - - Partly cloudy 10 - - - -
20/08:30am 28.8 E 3 4 1012.1 - - - - 10 - - - -
20/08:20am 28.8 ESE 3 4 1011.9 - - - - 10 - - - -
20/08:10am 29.1 ESE 3 3 1011.8 - - - - 10 - - - -
20/08:00am 29.0 ESE 3 4 1011.6 - - - - 10 - - - -
20/07:50am 28.7 SE 4 4 1011.3 - - - Partly cloudy 10 - - - -
20/07:40am 28.7 SSE 4 4 1011.2 - - - Partly cloudy 3 - - - -
20/07:30am 28.6 SE 3 5 1010.9 - - - Partly cloudy 10 - - - -
20/07:20am 28.5 SE 4 4 1011.0 - - - - 10 - - - -
20/07:10am 28.4 SE 5 6 1010.8 - - - Partly cloudy 10 - - - -
20/07:00am 28.4 ESE 5 5 1010.8 - - - Partly cloudy 10 - - - -
20/06:50am 28.3 E 4 4 1010.9 - - - Partly cloudy 10 - - - -
20/06:40am 28.4 ESE 3 4 1010.7 - - - Partly cloudy 10 - - - -
20/06:30am 28.3 E 3 4 1010.6 - - - Partly cloudy 10 - - - -
20/06:20am 28.3 E 3 3 1010.5 - - - Partly cloudy 10 - - - -
20/06:10am 28.3 E 3 3 1010.5 - - - Partly cloudy 10 - - - -
20/06:00am 28.4 ENE 3 4 1010.5 - - - Partly cloudy 10 - - - -
20/05:50am 28.4 ENE 4 4 1010.4 - - - Partly cloudy 10 - - - -
20/05:40am 28.4 E 3 4 1010.4 - - - Partly cloudy 10 - - - -
20/05:30am 28.4 E 3 4 1010.3 - - - Partly cloudy 10 - - - -
20/05:20am 28.4 E 3 3 1010.3 - - - Cloudy 10 - - - -
20/05:10am 28.5 ENE 2 2 1010.3 - - - Cloudy 10 - - - -
20/05:00am 28.5 E 4 4 1010.2 - - - Partly cloudy 10 - - - -
20/04:50am 28.5 E 3 5 1009.9 - - - Partly cloudy 10 - - - -
20/04:40am 28.4 E 4 4 1009.9 - - - Partly cloudy 10 - - - -
20/04:30am 28.5 E 4 5 1009.7 - - - Partly cloudy 10 - - - -
20/04:20am 28.5 E 4 4 1009.7 - - - Partly cloudy 10 - - - -
20/04:10am 28.5 E 4 5 1009.6 - - - Partly cloudy 8 - - - -
20/04:00am 28.5 E 5 5 1009.5 - - - Partly cloudy 10 - - - -
20/03:50am 28.6 E 5 5 1009.5 - - - Partly cloudy 10 - - - -
20/03:40am 28.5 ESE 5 5 1009.5 - - - Partly cloudy 10 - - - -
20/03:30am 28.5 ESE 4 5 1009.5 - - - Partly cloudy 10 - - - -
20/03:20am 28.6 ESE 5 6 1009.5 - - - Partly cloudy 10 - - - -
20/03:10am 28.6 ESE 5 5 1009.5 - - - Partly cloudy 10 - - - -
20/03:00am 28.8 ESE 5 5 1009.6 - - - Partly cloudy 10 - - - -
20/02:50am 28.8 ENE 5 8 1009.7 - - - Partly cloudy 10 - - - -
20/02:40am 28.6 NE 4 5 1009.7 - - - Cloudy 10 - - - -
20/02:30am 28.6 NNE 3 4 1009.7 - - - Partly cloudy 10 - - - -
20/02:20am 28.6 NE 4 5 1009.8 - - - Partly cloudy 10 - - - -
20/02:10am 28.6 ENE 5 8 1009.7 - - - Partly cloudy 10 - - - -
20/02:00am 28.6 ENE 5 7 1009.8 - - - Partly cloudy 10 - - - -
20/01:50am 28.7 E 7 8 1009.9 - - - Partly cloudy 10 - - - -
20/01:40am 28.8 E 7 7 1009.9 - - - Partly cloudy 10 - - - -
20/01:30am 28.8 E 7 7 1009.9 - - - Partly cloudy 10 - - - -
20/01:20am 28.8 E 7 9 1009.9 - - - Partly cloudy 10 - - - -
20/01:10am 28.8 E 7 8 1010.0 - - - Partly cloudy 10 - - - -
20/01:00am 28.9 E 7 8 1010.1 - - - Partly cloudy 10 - - - -
20/12:50am 28.8 E 8 8 1010.0 - - - Partly cloudy 10 - - - -
20/12:40am 28.9 E 7 10 1010.2 - - - Partly cloudy 10 - - - -
20/12:30am 28.7 NE 7 8 1010.4 - - - Partly cloudy 10 - - - -
20/12:20am 28.8 NE 7 7 1010.6 - - - Partly cloudy 10 - - - -
20/12:10am 28.8 NE 7 8 1010.6 - - - Partly cloudy 10 - - - -
20/12:00am 28.8 NE 7 8 1010.7 - - - Cloudy 10 - - - -
 
Date/Time
CST
Temp
°C
Wind Pressure Rain since
9am
mm
Weather Cloud Vis
km
Sea
Height
m
Swell
Dir  Spd
kts
Gust
kts
hPa Trend Height
m
Period
s
Dir
19/11:50pm 28.9 NE 7 8 1010.6 - - - Partly cloudy 10 - - - -
19/11:40pm 28.9 NE 8 9 1010.6 - - - Cloudy 10 - - - -
19/11:30pm 28.9 NE 8 10 1010.6 - - - Partly cloudy 10 - - - -
19/11:20pm 29.0 NE 8 9 1010.7 - - - Partly cloudy 10 - - - -
19/11:10pm 28.9 NE 9 10 1010.6 - - - Partly cloudy 10 - - - -
19/11:00pm 29.0 ENE 8 10 1010.6 - - - Partly cloudy 10 - - - -
19/10:50pm 28.9 NE 9 10 1010.5 - - - Partly cloudy 10 - - - -
19/10:40pm 29.0 NE 9 10 1010.5 - - - Partly cloudy 10 - - - -
19/10:30pm 29.1 ENE 9 9 1010.5 - - - Partly cloudy 10 - - - -
19/10:20pm 29.0 ENE 10 10 1010.3 - - - Cloudy 10 - - - -
19/10:10pm 29.0 NE 10 12 1010.2 - - - Cloudy 10 - - - -
19/10:00pm 29.0 ENE 8 12 1010.1 - - - Cloudy 10 - - - -
19/09:50pm 29.0 ENE 7 10 1009.9 - - - Partly cloudy 10 - - - -
19/09:40pm 28.9 E 7 9 1009.9 - - - Partly cloudy 10 - - - -
19/09:30pm 29.0 E 5 7 1010.0 - - - Partly cloudy 10 - - - -
19/09:20pm 29.0 ENE 8 11 1009.9 - - - Partly cloudy 10 - - - -
19/09:10pm 28.9 E 8 9 1009.9 - - - Partly cloudy 10 - - - -
19/09:00pm 28.9 E 7 9 1009.7 - - - Cloudy 10 - - - -
19/08:50pm 28.9 E 8 9 1009.6 - - - Cloudy 10 - - - -
19/08:40pm 28.9 E 7 8 1009.4 - - - Partly cloudy 10 - - - -
19/08:30pm 28.9 E 9 9 1009.3 - - - Partly cloudy 10 - - - -
19/08:20pm 28.9 ENE 10 11 1009.3 - - - Partly cloudy 10 - - - -
19/08:10pm 28.9 ENE 9 10 1009.1 - - - Partly cloudy 10 - - - -
19/08:00pm 28.9 ENE 10 12 1009.0 - - - Partly cloudy 10 - - - -
19/07:50pm 28.9 ENE 9 10 1008.8 - - - Partly cloudy 10 - - - -
19/07:40pm 28.9 E 8 10 1008.6 - - - Partly cloudy 10 - - - -
19/07:30pm 28.8 E 8 10 1008.4 - - - Partly cloudy 10 - - - -
19/07:20pm 28.9 ESE 7 8 1008.4 - - - Cloudy 10 - - - -
19/07:10pm 28.9 E 6 8 1008.2 - - - Cloudy 10 - - - -
19/07:00pm 28.9 E 8 9 1008.0 - - - Partly cloudy 10 - - - -
19/06:50pm 29.0 E 9 10 1007.9 - - - Partly cloudy 10 - - - -
19/06:40pm 29.2 E 9 11 1007.7 - - - Partly cloudy 10 - - - -
19/06:30pm 29.7 ESE 11 12 1007.6 - - - Cloudy 10 - - - -
19/06:20pm 29.8 ESE 12 14 1007.4 - - - Cloudy 10 - - - -
19/06:10pm 29.9 E 11 12 1007.2 - - - Cloudy 10 - - - -
19/06:00pm 29.9 E 12 13 1007.0 - - - Cloudy 10 - - - -
19/05:50pm 29.5 E 12 12 1007.0 - - - Cloudy 10 - - - -
19/05:40pm 29.2 E 11 14 1006.6 - - - Cloudy 10 - - - -
19/05:30pm 29.0 E 8 10 1006.9 - - - Cloudy 10 - - - -
19/05:20pm 29.0 ESE 6 7 1007.0 - - - Partly cloudy 10 - - - -
19/05:10pm 29.2 E 3 5 1007.3 - - - Partly cloudy 10 - - - -
19/05:00pm 29.7 ENE 3 4 1007.6 - - - Partly cloudy 10 - - - -
19/04:50pm 30.1 ENE 3 4 1007.8 - - - Partly cloudy 10 - - - -
19/04:40pm 30.3 NE 4 4 1007.9 - - - Cloudy 10 - - - -
19/04:30pm 30.4 NE 5 5 1007.9 - - - Cloudy 10 - - - -
19/04:20pm 30.7 NE 4 4 1008.0 - - - Partly cloudy 9 - - - -
19/04:10pm 31.0 ENE 5 8 1008.1 - - - Partly cloudy 7 - - - -
19/04:00pm 31.1 NE 4 6 1008.1 - - - Partly cloudy 10 - - - -
19/03:50pm 30.7 ENE 6 6 1008.2 - - - Partly cloudy 10 - - - -
19/03:40pm 31.4 ENE 5 7 1008.2 - - - Partly cloudy 10 - - - -
19/03:30pm 31.5 ENE 6 8 1008.1 - - - Partly cloudy 10 - - - -
19/03:20pm 31.4 E 6 7 1008.1 - - - Partly cloudy 10 - - - -
19/03:10pm 32.6 NE 5 5 1008.1 - - - Partly cloudy 9 - - - -
19/03:00pm 33.2 NE 6 9 1008.2 - - - Partly cloudy 10 - - - -
19/02:50pm 32.0 ENE 5 7 1008.3 - - - - 10 - - - -
19/02:40pm 30.9 ENE 4 6 1008.4 - - - Partly cloudy 10 - - - -
19/09:40am 30.2 E 10 13 1009.7 - - - Partly cloudy 10 - - - -
19/09:30am 29.6 E 11 14 1009.6 - - - Partly cloudy 10 - - - -
19/09:20am 29.4 E 12 13 1009.7 - - - Partly cloudy 10 - - - -
19/09:10am 30.0 E 15 16 1009.6 - - - Cloudy 10 - - - -
19/09:00am 30.2 E 16 17 1009.5 - - - Cloudy 10 - - - -
19/08:50am 29.3 E 16 16 1009.5 - - - Cloudy 10 - - - -
19/08:40am 29.1 E 16 16 1009.4 - - - Partly cloudy 10 - - - -
19/08:30am 28.8 E 16 18 1009.3 - - - Partly cloudy 10 - - - -
19/08:20am 28.7 E 15 17 1009.2 - - - Partly cloudy 10 - - - -
19/08:10am 28.5 E 14 15 1009.4 - - - Partly cloudy 10 - - - -
19/08:00am 28.5 ESE 12 13 1009.4 - - - Partly cloudy 10 - - - -
19/07:50am 28.5 E 12 13 1009.4 - - - Partly cloudy 10 - - - -
19/07:40am 28.5 E 12 14 1009.2 - - - Partly cloudy 10 - - - -
19/03:20am 28.6 E 13 13 1007.4 - - - Partly cloudy 10 - - - -
19/03:10am 28.6 E 12 14 1007.4 - - - Partly cloudy 10 - - - -
19/03:00am 28.7 E 12 14 1007.4 - - - Partly cloudy 10 - - - -
19/02:50am 28.7 E 12 12 1007.5 - - - Partly cloudy 10 - - - -
19/02:40am 28.7 ESE 13 12 1007.5 - - - Partly cloudy 10 - - - -
19/02:30am 28.9 E 13 14 1007.5 - - - Partly cloudy 10 - - - -
19/02:20am 29.4 E 15 15 1007.3 - - - Partly cloudy 10 - - - -
19/02:10am 29.6 ESE 16 17 1007.3 - - - Partly cloudy 10 - - - -
19/01:40am 29.3 ESE 15 18 1007.6 - - - Partly cloudy 10 - - - -
19/01:20am 29.8 E 15 18 1007.7 - - - Partly cloudy 10 - - - -
19/01:10am 29.4 E 15 16 1007.9 - - - Partly cloudy 10 - - - -
19/01:00am 29.6 ESE 16 17 1007.9 - - - Partly cloudy 10 - - - -
19/12:50am 29.8 ESE 15 17 1008.1 - - - Partly cloudy 10 - - - -
19/12:40am 29.4 E 14 16 1008.3 - - - Partly cloudy 10 - - - -
19/12:30am 29.4 E 14 14 1008.5 - - - Partly cloudy 10 - - - -
19/12:20am 29.4 E 14 15 1008.5 - - - Partly cloudy 10 - - - -
19/12:10am 29.2 E 13 15 1008.7 - - - Partly cloudy 10 - - - -
19/12:00am 29.2 E 12 14 1008.9 - - - Partly cloudy 10 - - - -
 
Date/Time
CST
Temp
°C
Wind Pressure Rain since
9am
mm
Weather Cloud Vis
km
Sea
Height
m
Swell
Dir  Spd
kts
Gust
kts
hPa Trend Height
m
Period
s
Dir
18/11:50pm 29.0 E 12 13 1009.0 - - - Partly cloudy 10 - - - -
18/11:40pm 28.9 E 12 12 1009.1 - - - Partly cloudy 10 - - - -
18/11:30pm 29.0 E 12 13 1009.2 - - - Partly cloudy 10 - - - -
18/11:20pm 28.9 E 11 13 1009.2 - - - Partly cloudy 10 - - - -
18/11:10pm 29.0 E 11 12 1009.3 - - - Partly cloudy 10 - - - -
18/11:00pm 28.8 E 12 12 1009.2 - - - Partly cloudy 10 - - - -
18/10:50pm 28.9 E 12 13 1009.1 - - - Partly cloudy 10 - - - -
18/10:40pm 29.1 E 12 13 1009.1 - - - Partly cloudy 10 - - - -
18/10:30pm 28.9 E 12 13 1009.1 - - - Partly cloudy 10 - - - -
18/10:20pm 29.0 E 11 13 1009.0 - - - Partly cloudy 10 - - - -
18/10:10pm 28.8 E 12 13 1009.0 - - - Partly cloudy 10 - - - -
18/10:00pm 28.8 E 11 13 1008.9 - - - Partly cloudy 10 - - - -
18/09:50pm 28.9 E 11 12 1008.8 - - - Partly cloudy 10 - - - -
18/09:40pm 28.9 E 11 12 1008.8 - - - Partly cloudy 10 - - - -
18/09:30pm 28.9 E 10 11 1008.8 - - - Partly cloudy 10 - - - -
18/09:20pm 28.9 E 11 12 1008.7 - - - Partly cloudy 10 - - - -
18/09:10pm 29.0 E 10 11 1008.7 - - - Partly cloudy 10 - - - -
18/09:00pm 29.0 E 10 10 1008.7 - - - Partly cloudy 10 - - - -
18/08:50pm 29.0 ENE 10 12 1008.7 - - - Partly cloudy 10 - - - -
18/08:40pm 29.0 ENE 10 11 1008.6 - - - Partly cloudy 10 - - - -
18/08:30pm 29.1 ENE 10 10 1008.5 - - - Partly cloudy 10 - - - -
18/08:20pm 29.1 ENE 10 12 1008.3 - - - Partly cloudy 10 - - - -
18/08:10pm 29.2 E 11 13 1008.2 - - - Partly cloudy 10 - - - -
18/08:00pm 29.3 E 12 12 1007.9 - - - Partly cloudy 10 - - - -
18/07:50pm 29.3 E 13 14 1007.7 - - - Partly cloudy 10 - - - -
18/07:40pm 29.4 E 14 15 1007.2 - - - Partly cloudy 10 - - - -
18/07:30pm 29.7 E 15 16 1006.8 - - - Partly cloudy 10 - - - -
18/07:20pm 29.7 E 14 15 1006.8 - - - Partly cloudy 10 - - - -
18/07:10pm 29.6 E 16 17 1006.6 - - - Partly cloudy 10 - - - -
18/07:00pm 29.6 E 15 17 1006.5 - - - Partly cloudy 10 - - - -
18/06:50pm 30.0 E 15 17 1006.4 - - - Partly cloudy 10 - - - -
18/06:40pm 30.1 E 16 17 1006.4 - - - Partly cloudy 10 - - - -
18/06:30pm 30.4 E 16 17 1006.3 - - - Partly cloudy 10 - - - -
18/06:20pm 30.7 ENE 16 17 1006.1 - - - Partly cloudy 10 - - - -
18/06:10pm 31.2 ENE 17 17 1006.1 - - - - 10 - - - -
18/06:00pm 31.1 E 16 17 1006.0 - - - Partly cloudy 10 - - - -
18/05:50pm 31.0 E 16 19 1005.9 - - - Partly cloudy 10 - - - -
18/05:40pm 30.9 ENE 16 16 1006.0 - - - Partly cloudy 10 - - - -
18/05:30pm 31.2 ENE 17 17 1006.1 - - - Partly cloudy 10 - - - -
18/05:20pm 31.1 ENE 16 17 1006.1 - - - Partly cloudy 10 - - - -
18/05:10pm 30.8 ENE 15 17 1006.0 - - - Partly cloudy 10 - - - -
18/05:00pm 30.8 E 17 17 1005.7 - - - Partly cloudy 10 - - - -
18/04:50pm 31.3 E 17 18 1005.8 - - - Partly cloudy 10 - - - -
18/04:40pm 31.7 E 16 18 1005.9 - - - Partly cloudy 10 - - - -
18/04:30pm 31.4 E 16 17 1006.1 - - - Partly cloudy 10 - - - -
18/04:20pm 32.0 E 16 19 1006.1 - - - Partly cloudy 10 - - - -
18/04:10pm 31.8 E 15 17 1006.2 - - - Partly cloudy 10 - - - -
18/04:00pm 31.4 E 14 15 1006.4 - - - Partly cloudy 10 - - - -
18/03:50pm 32.2 E 15 14 1006.6 - - - Partly cloudy 10 - - - -
18/03:40pm 32.2 E 17 19 1006.5 - - - Partly cloudy 10 - - - -
18/03:30pm 32.4 E 19 20 1006.2 - - - Partly cloudy 10 - - - -
18/03:20pm 32.3 E 20 21 1006.2 - - - - 10 - - - -
18/03:10pm 32.3 E 19 22 1006.2 - - - - 10 - - - -
18/03:00pm 32.2 E 20 21 1006.3 - - - Partly cloudy 10 - - - -
18/02:50pm 32.2 E 19 22 1006.5 - - - Partly cloudy 10 - - - -
18/02:40pm 32.5 E 18 19 1006.7 - - - Partly cloudy 10 - - - -
18/02:30pm 32.2 E 18 21 1006.8 - - - Partly cloudy 10 - - - -
18/02:20pm 32.3 E 17 18 1006.9 - - - Partly cloudy 10 - - - -
18/02:10pm 32.4 E 17 18 1007.2 - - - Partly cloudy 10 - - - -
18/02:00pm 32.3 E 17 19 1007.3 - - - Partly cloudy 10 - - - -
18/01:50pm 32.2 E 18 19 1007.4 - - - Partly cloudy 10 - - - -
18/01:40pm 32.5 E 17 20 1007.6 - - - Partly cloudy 10 - - - -
18/01:30pm 32.5 E 17 18 1007.8 - - - Partly cloudy 10 - - - -
18/01:20pm 32.5 E 17 18 1008.0 - - - Partly cloudy 10 - - - -
18/01:10pm 32.2 E 16 19 1008.2 - - - Partly cloudy 10 - - - -
18/01:00pm 32.2 E 15 16 1008.3 - - - - 10 - - - -
18/12:50pm 32.1 E 17 18 1008.4 - - - - 10 - - - -
18/12:40pm 31.5 ENE 18 19 1008.5 - - - Partly cloudy 10 - - - -
18/12:30pm 31.5 ENE 17 19 1008.6 - - - Partly cloudy 10 - - - -
18/12:20pm 31.7 ENE 16 19 1008.7 - - - Partly cloudy 10 - - - -
18/12:10pm 32.1 E 17 17 1008.8 - - - Partly cloudy 10 - - - -
18/12:00pm 32.1 E 17 18 1008.8 - - - Partly cloudy 10 - - - -
18/11:50am 31.7 ENE 16 18 1008.8 - - - Partly cloudy 10 - - - -
18/11:40am 31.6 ENE 18 19 1009.0 - - - Partly cloudy 10 - - - -
18/11:30am 32.0 E 17 19 1009.1 - - - Partly cloudy 10 - - - -
18/11:20am 32.3 E 15 17 1009.1 - - - Partly cloudy 10 - - - -
18/11:10am 32.6 E 16 17 1009.2 - - - Partly cloudy 10 - - - -
18/11:00am 32.1 E 17 17 1009.3 - - - Partly cloudy 10 - - - -
18/10:50am 31.8 E 18 19 1009.2 - - - Partly cloudy 10 - - - -
18/10:40am 31.8 E 18 21 1009.1 - - - Partly cloudy 10 - - - -
18/10:30am 31.3 E 18 19 1009.3 - - - Partly cloudy 10 - - - -
18/10:20am 31.0 E 18 19 1009.3 - - - Partly cloudy 10 - - - -
18/10:10am 31.2 E 19 20 1009.3 - - - Partly cloudy 10 - - - -
18/10:00am 31.3 E 18 21 1009.4 - - - Partly cloudy 10 - - - -
18/09:50am 31.4 E 18 20 1009.2 - - - Partly cloudy 10 - - - -
18/09:40am 31.1 E 21 22 1009.3 - - - Partly cloudy 10 - - - -
18/09:30am 31.1 E 20 23 1009.2 - - - Partly cloudy 10 - - - -
18/09:20am 30.6 E 20 21 1009.2 - - - Partly cloudy 10 - - - -
18/09:10am 30.9 E 20 22 1009.1 - - - Partly cloudy 10 - - - -
18/09:00am 31.4 E 19 19 1009.1 - - - Partly cloudy 10 - - - -
18/08:50am 31.5 E 19 22 1008.9 - - - Partly cloudy 10 - - - -
18/08:40am 31.5 E 20 20 1008.9 - - - Partly cloudy 10 - - - -
18/08:30am 30.3 E 20 23 1008.9 - - - Partly cloudy 10 - - - -
18/08:20am 30.4 E 20 20 1008.8 - - - Partly cloudy 10 - - - -
18/08:10am 30.8 E 19 19 1008.7 - - - Partly cloudy 10 - - - -
18/08:00am 30.7 E 19 21 1008.5 - - - Partly cloudy 10 - - - -
18/07:50am 30.4 E 20 23 1008.4 - - - Partly cloudy 10 - - - -
18/07:40am 30.0 E 20 21 1008.4 - - - Partly cloudy 10 - - - -
18/07:30am 30.2 E 20 20 1008.3 - - - Partly cloudy 10 - - - -
18/07:20am 30.5 E 19 21 1008.3 - - - Partly cloudy 10 - - - -
18/07:10am 29.7 E 20 21 1008.2 - - - Partly cloudy 10 - - - -
18/07:00am 30.6 E 20 22 1008.0 - - - Partly cloudy 10 - - - -
18/06:50am 30.7 E 20 22 1008.0 - - - Partly cloudy 10 - - - -
18/06:40am 30.4 E 20 23 1008.0 - - - Partly cloudy 10 - - - -
18/06:30am 29.9 E 20 22 1007.9 - - - Partly cloudy 10 - - - -
18/06:20am 30.6 E 20 22 1007.9 - - - Partly cloudy 10 - - - -
18/06:10am 30.2 E 20 21 1007.7 - - - Partly cloudy 10 - - - -
18/06:00am 30.7 E 20 21 1007.5 - - - Partly cloudy 10 - - - -
18/05:50am 30.7 E 20 22 1007.5 - - - Partly cloudy 10 - - - -
18/05:40am 30.7 E 19 21 1007.5 - - - Partly cloudy 10 - - - -
18/05:30am 30.1 E 18 21 1007.5 - - - Partly cloudy 10 - - - -
18/05:20am 30.1 E 18 19 1007.6 - - - Partly cloudy 10 - - - -
18/05:10am 30.3 E 19 20 1007.4 - - - - 10 - - - -
18/05:00am 30.4 E 18 19 1007.3 - - - - 10 - - - -
18/04:50am 30.0 E 18 18 1007.3 - - - - 10 - - - -
18/04:40am 30.1 E 18 18 1007.2 - - - - 10 - - - -
18/04:30am 30.3 E 18 19 1007.2 - - - Partly cloudy 10 - - - -
18/04:20am 30.1 E 17 18 1007.3 - - - Partly cloudy 10 - - - -
18/04:10am 29.8 E 16 17 1007.4 - - - Partly cloudy 10 - - - -
18/04:00am 30.1 E 17 19 1007.3 - - - Partly cloudy 10 - - - -
18/03:50am 29.8 E 16 18 1007.3 - - - Partly cloudy 10 - - - -
18/03:40am 29.8 E 16 16 1007.3 - - - Partly cloudy 10 - - - -
18/03:30am 29.3 E 16 18 1007.3 - - - Partly cloudy 10 - - - -
18/03:20am 29.6 E 17 18 1007.3 - - - Partly cloudy 10 - - - -
18/03:10am 29.7 E 17 19 1007.4 - - - Partly cloudy 10 - - - -
18/03:00am 29.6 E 17 18 1007.5 - - - Partly cloudy 10 - - - -
18/02:50am 29.8 E 17 18 1007.7 - - - Partly cloudy 10 - - - -
18/02:40am 29.9 E 17 17 1007.8 - - - Partly cloudy 10 - - - -
18/02:30am 29.5 E 16 18 1007.9 - - - Partly cloudy 10 - - - -
18/02:20am 30.0 E 17 18 1008.0 - - - Partly cloudy 10 - - - -
18/02:10am 30.4 E 16 18 1008.0 - - - Partly cloudy 10 - - - -
18/02:00am 29.6 E 16 16 1008.0 - - - - 10 - - - -
18/01:50am 29.6 E 15 16 1008.2 - - - - 10 - - - -
18/01:40am 30.1 E 16 17 1008.3 - - - Partly cloudy 10 - - - -
18/01:30am 30.5 E 17 18 1008.3 - - - Partly cloudy 10 - - - -
18/01:20am 30.1 E 16 17 1008.5 - - - Partly cloudy 10 - - - -
18/01:10am 29.8 E 15 18 1008.7 - - - Partly cloudy 10 - - - -
18/01:00am 29.4 E 16 17 1008.8 - - - Partly cloudy 10 - - - -
18/12:50am 29.4 E 16 17 1008.7 - - - Partly cloudy 10 - - - -
18/12:40am 30.1 E 17 18 1008.8 - - - Partly cloudy 10 - - - -
18/12:30am 29.7 E 17 17 1009.0 - - - Partly cloudy 10 - - - -
18/12:20am 30.1 E 16 18 1009.0 - - - Partly cloudy 10 - - - -
18/12:10am 29.4 E 17 17 1009.1 - - - Partly cloudy 10 - - - -
18/12:00am 30.0 E 18 17 1009.1 - - - Partly cloudy 10 - - - -
 
Date/Time
CST
Temp
°C
Wind Pressure Rain since
9am
mm
Weather Cloud Vis
km
Sea
Height
m
Swell
Dir  Spd
kts
Gust
kts
hPa Trend Height
m
Period
s
Dir
17/11:50pm 30.0 E 17 19 1009.2 - - - Partly cloudy 10 - - - -

Other Formats:

Comma delimited format used in spreadsheet applications
http://www.bom.gov.au/fwo/IDD60701/IDD60701.95100.axf

JavaScript Object Notation format (JSON) in row-major order
http://www.bom.gov.au/fwo/IDD60701/IDD60701.95100.json